Simultaneous Nadir Overpasses (SNOs) Predictions

Prediction of SNOs between AQUA and NOAA-19 Satellite Orbit:

Table of predicted SNOs for the next 14.0 days since TLE Epoch: 10/21/2011
Index Date Time (AQUA) AQUA Lat,Lon NOAA-19 Lat,Lon Distance(km) Time Diff (sec)
1 10/23/2011 10:56:51 41.57,-133.14 41.57,-133.15 1.46 32
2 10/25/2011 15:39:05 48.75, 158.42 48.74, 158.41 0.98 7
3 10/27/2011 20:21:39 54.65, 90.05 54.65, 90.05 0.28 47
4 10/30/2011 00:18:27 -47.66,-151.78 -47.66,-151.80 1.43 0
5 11/01/2011 04:15:16 40.16, -33.10 40.16, -33.09 0.71 47




NCC Satellite Simultaneous Nadir Overpasses (SNOs) Prediction Service
